1483261200.55,48170,10.81,73608.3,0.17,-37.33,-37.99,0,*41
1483261201.77,48171,10.81,73614.8,0.19,-37.27,-37.93,0,*41
1483261203.04,48172,10.81,73618.5,0.17,-37.21,-37.93,0,*4A
1483261204.29,48173,10.81,73618.8,0.17,-37.45,-38.29,0,*47
1483261205.53,48174,10.81,73620.5,0.19,-37.39,-38.11,0,*4E
1483261206.72,48175,10.81,73618.8,0.19,-37.33,-38.05,0,*40
1483261207.94,48176,10.81,73622.5,0.19,-37.15,-37.93,0,*47
1483261209.14,48177,10.81,73624.0,0.19,-36.97,-37.57,0,*45
1483261210.39,48178,10.81,73626.8,0.19,-38.29,-39.29,0,*46
1483261211.6,48179,10.81,73616.8,0.19,-38.43,-39.23,0,*41
1483261212.83,48180,10.81,73616.8,0.19,-39.09,-40.09,0,*4E
1483261214.02,48181,10.81,73616.3,0.15,-38.97,-39.85,0,*4F
1483261215.27,48182,10.81,73620.3,0.15,-38.79,-39.71,0,*47
1483261216.47,48183,10.81,73618.5,0.15,-39.85,-40.73,0,*48
1483261217.75,48184,10.81,73616.5,0.13,-39.97,-40.97,0,*40
1483261219.02,48185,10.81,73610.0,0.13,-39.97,-40.79,0,*41
1483261220.26,48186,10.81,73612.5,0.11,-39.23,-40.15,0,*45
1483261221.47,48187,10.81,73618.0,0.09,-38.61,-39.41,0,*75
1483261222.69,48188,10.81,73610.0,0.09,-38.85,-39.79,0,*7B
1483261223.92,48189,10.81,73614.8,0.07,-38.91,-39.85,0,*72
1483261225.11,48190,10.81,73612.5,0.09,-38.43,-39.09,0,*7F
1483261226.35,48191,10.81,73618.5,0.07,-38.43,-39.23,0,*78
1483261227.61,48192,10.81,73622.0,0.07,-39.03,-39.97,0,*71
1483261228.88,48193,10.81,73624.3,0.07,-40.21,-41.23,0,*7E
1483261230.09,48194,10.81,73624.0,0.05,-39.71,-40.65,0,*73
1483261231.31,48195,10.81,73626.0,0.01,-39.71,-40.73,0,*71
1483261232.55,48196,10.81,73624.8,0.01,-39.23,-39.97,0,*71
1483261233.76,48197,10.81,73624.5,0.01,-38.73,-39.71,0,*7C
1483261235.0,48198,10.81,73624.3,0.01,-39.15,-39.97,0,*7A
1483261236.25,48199,10.81,73630.8,-0.01,-39.23,-40.15,0,*57
1483261237.53,48200,10.81,73628.5,-0.01,-39.79,-40.59,0,*53
1483261238.78,48201,10.81,73624.5,-0.01,-39.23,-40.15,0,*55
1483261240.02,48202,10.81,73626.3,-0.03,-39.29,-40.21,0,*59
1483261241.24,48203,10.81,73616.5,-0.03,-39.23,-40.15,0,*55
1483261242.48,48204,10.81,73618.3,-0.05,-38.11,-38.97,0,*51
1483261243.7,48205,10.81,73622.8,-0.05,-38.05,-38.85,0,*56
1483261244.96,48206,10.81,73620.8,-0.05,-38.67,-39.59,0,*51
1483261246.21,48207,10.81,73620.5,-0.05,-39.23,-40.03,0,*50
1483261247.48,48208,10.81,73618.8,-0.05,-38.49,-39.29,0,*54
1483261248.75,48209,10.81,73612.3,-0.05,-38.49,-39.41,0,*5B
1483261249.98,48210,10.81,73600.8,-0.05,-38.67,-39.47,0,*59
1483261251.23,48211,10.81,73592.8,-0.07,-37.69,-38.49,0,*54
1483261252.47,48212,10.81,73594.5,-0.05,-37.93,-38.61,0,*5A
1483261253.72,48213,10.81,73592.3,-0.07,-38.29,-39.03,0,*52
1483261254.93,48214,10.81,73594.8,-0.05,-38.97,-39.85,0,*5C
1483261256.2,48215,10.81,73598.5,-0.05,-38.49,-39.29,0,*58
1483261257.47,48216,10.81,73604.0,-0.05,-38.49,-39.29,0,*5B
1483261258.69,48217,10.81,73606.8,-0.05,-37.75,-38.43,0,*57
1483261259.96,48218,10.81,73610.8,-0.05,-37.51,-38.11,0,*59
1483261261.15,48219,10.81,73614.8,-0.03,-37.33,-37.87,0,*5A
1483261262.37,48220,10.81,73612.0,-0.03,-36.97,-37.69,0,*5F
1483261263.57,48221,10.81,73608.0,-0.03,-36.97,-37.87,0,*5E
1483261264.8,48222,10.81,73612.8,-0.01,-37.27,-37.87,0,*55
1483261266.01,48223,10.81,73612.8,-0.01,-37.45,-38.17,0,*56
1483261267.26,48224,10.81,73616.3,-0.01,-37.69,-38.43,0,*5E
1483261268.53,48225,10.81,73624.8,-0.01,-37.99,-38.79,0,*59
1483261269.74,48226,10.81,73628.3,0.01,-37.99,-38.73,0,*7D
1483261270.96,48227,10.81,73626.5,0.01,-37.87,-38.79,0,*79
1483261272.16,48228,10.81,73622.3,0.01,-38.55,-39.41,0,*7C
1483261273.41,48229,10.81,73618.5,-0.01,-38.61,-39.59,0,*5E
1483261274.67,48230,10.81,73618.5,-0.01,-39.59,-40.53,0,*58
1483261275.87,48231,10.81,73614.5,-0.03,-38.67,-39.47,0,*5C
1483261277.06,48232,10.81,73610.8,-0.03,-38.97,-39.85,0,*5E
1483261278.33,48233,10.81,73602.8,-0.01,-39.23,-40.09,0,*59
1483261279.55,48234,10.81,73588.3,-0.03,-38.23,-38.85,0,*56
1483261280.77,48235,10.81,73594.5,-0.03,-37.93,-38.61,0,*59
1483261281.99,48236,10.81,73598.5,-0.01,-37.57,-38.35,0,*51
1483261283.19,48237,10.81,73596.0,-0.03,-37.87,-38.61,0,*5E
1483261284.44,48238,10.81,73600.3,-0.01,-37.63,-38.55,0,*5E
1483261285.65,48239,10.81,73614.3,-0.01,-38.17,-38.97,0,*5D
1483261286.84,48240,10.81,73618.8,-0.03,-38.61,-39.47,0,*5C
1483261288.08,48241,10.81,73618.8,-0.01,-38.73,-39.41,0,*5A
1483261289.35,48242,10.81,73618.0,-0.01,-37.39,-37.99,0,*53
1483261290.57,48243,10.81,73612.0,-0.01,-37.57,-38.35,0,*53
1483261291.79,48244,10.81,73618.8,-0.01,-37.45,-38.17,0,*57
1483261293.03,48245,10.81,73614.8,0.01,-37.09,-37.81,0,*73
1483261294.22,48246,10.81,73616.8,0.01,-37.27,-38.05,0,*7F
1483261295.44,48247,10.81,73618.0,0.05,-37.81,-38.35,0,*75
1483261296.67,48248,10.81,73616.0,0.01,-38.91,-39.71,0,*71
1483261297.91,48249,10.81,73614.8,0.01,-39.03,-39.97,0,*72
1483261299.15,48250,10.81,73620.3,0.01,-39.23,-40.21,0,*7B
1483261300.39,48251,10.81,73616.5,-0.01,-39.53,-40.35,0,*55
1483261301.63,48252,10.81,73610.3,-0.03,-38.67,-39.79,0,*54
1483261302.84,48253,10.81,73606.5,-0.03,-38.43,-39.23,0,*5C
1483261304.09,48254,10.81,73604.3,-0.01,-37.87,-38.67,0,*5F
1483261305.31,48255,10.81,73606.5,-0.03,-37.75,-38.49,0,*5D
1483261306.56,48256,10.81,73606.0,-0.03,-37.69,-38.49,0,*53
1483261307.77,48257,10.81,73602.5,-0.01,-37.57,-38.17,0,*56
1483261309.01,48258,10.81,73612.8,-0.01,-37.39,-38.05,0,*52
1483261310.26,48259,10.81,73616.5,-0.01,-37.63,-38.43,0,*5E
1483261311.48,48260,10.81,73606.3,-0.01,-38.17,-38.97,0,*51
1483261312.7,48261,10.81,73606.5,-0.01,-37.57,-38.35,0,*53
1483261313.92,48262,10.81,73612.5,-0.01,-37.45,-38.17,0,*53
1483261315.16,48263,10.81,73606.8,-0.01,-37.45,-38.23,0,*55
1483261316.37,48264,10.81,73614.3,0.01,-38.43,-39.53,0,*70
1483261317.58,48265,10.81,73602.5,0.01,-39.03,-40.15,0,*78
1483261318.83,48266,10.81,73592.0,-0.01,-40.35,-41.35,0,*5E
1483261320.07,48267,10.81,73592.8,-0.01,-40.53,-41.55,0,*59
1483261321.32,48268,10.81,73596.3,-0.03,-39.59,-40.41,0,*54
1483261322.6,48269,10.81,73602.0,-0.05,-38.79,-39.59,0,*57
1483261323.84,48270,10.81,73600.8,-0.05,-38.67,-39.65,0,*5F
1483261325.04,48271,10.81,73604.0,-0.07,-39.09,-40.03,0,*5B
1483261326.28,48272,10.81,73606.5,-0.07,-39.29,-40.29,0,*52
1483261327.5,48273,10.81,73610.8,-0.07,-39.35,-40.29,0,*5E
1483261328.7,48274,10.81,73614.5,-0.07,-39.47,-40.35,0,*51
1483261329.89,48275,10.81,73610.0,-0.07,-38.35,-39.09,0,*55
1483261331.11,48276,10.81,73604.8,-0.07,-39.03,-39.85,0,*56
1483261332.36,48277,10.81,73600.5,-0.09,-38.23,-38.97,0,*58
1483261333.58,48278,10.81,73604.5,-0.09,-37.75,-38.35,0,*53
1483261334.8,48279,10.81,73608.0,-0.09,-37.45,-38.17,0,*51
1483261336.05,48280,10.81,73632.5,-0.07,-37.51,-37.99,0,*55
1483261337.29,48281,10.81,73626.8,-0.07,-39.03,-40.29,0,*56
1483261338.58,48282,10.81,73620.3,-0.05,-39.59,-40.41,0,*56
1483261339.82,48283,10.81,73614.5,-0.05,-39.23,-40.03,0,*5C
1483261341.04,48284,10.81,73602.0,-0.05,-39.09,-40.03,0,*53
1483261342.27,48285,10.81,73602.5,-0.11,-39.35,-40.09,0,*62
1483261343.52,48286,10.81,73604.8,-0.11,-38.91,-39.71,0,*6F
1483261344.74,48287,10.81,73614.0,-0.11,-38.61,-39.59,0,*6B
1483261345.99,48288,10.81,73610.8,-0.11,-37.99,-38.79,0,*6F
1483261347.22,48289,10.81,73612.0,-0.11,-38.17,-38.79,0,*67
1483261348.44,48290,10.81,73614.8,-0.09,-37.57,-38.17,0,*55
1483261349.66,48291,10.81,73616.0,-0.09,-37.87,-38.73,0,*5B
1483261350.91,48292,10.81,73614.8,-0.09,-38.61,-39.41,0,*5F
1483261352.15,48293,10.81,73610.8,-0.09,-39.53,-40.53,0,*53
1483261353.41,48294,10.81,73614.0,-0.09,-39.97,-40.91,0,*52
1483261354.67,48295,10.81,73604.8,-0.11,-40.09,-40.97,0,*65
1483261355.93,48296,10.81,73608.8,-0.13,-39.15,-39.65,0,*64
1483261357.21,48297,10.81,73608.8,-0.13,-37.93,-38.79,0,*69
1483261358.46,48298,10.81,73602.8,-0.13,-38.23,-38.97,0,*62
1483261359.74,48299,10.81,73606.0,-0.13,-37.69,-38.49,0,*61
1483261360.97,48300,10.81,73604.3,-0.13,-37.87,-38.61,0,*6A
1483261362.17,48301,10.81,73606.0,-0.11,-37.57,-38.17,0,*65
1483261363.42,48302,10.81,73604.3,-0.09,-37.63,-38.43,0,*59
1483261364.65,48303,10.81,73606.5,-0.09,-37.57,-38.35,0,*5E
1483261365.87,48304,10.81,73600.0,-0.09,-37.57,-38.35,0,*59
1483261367.07,48305,10.81,73600.3,-0.11,-37.57,-38.17,0,*61
1483261368.31,48306,10.81,73606.0,-0.09,-37.39,-38.05,0,*50
1483261369.53,48307,10.81,73608.0,-0.07,-37.33,-37.99,0,*5F
1483261370.78,48308,10.81,73614.0,-0.07,-37.21,-37.93,0,*59
1483261372.03,48309,10.81,73620.3,-0.05,-36.97,-37.69,0,*53
1483261373.27,48310,10.81,73622.0,-0.07,-37.39,-38.11,0,*5C
1483261374.49,48311,10.81,73624.5,-0.03,-37.63,-38.43,0,*51
1483261375.69,48312,10.81,73624.5,-0.03,-39.09,-40.03,0,*5B
1483261376.94,48313,10.81,73610.0,-0.05,-39.65,-40.59,0,*59
1483261378.13,48314,10.81,73602.3,-0.07,-39.35,-40.35,0,*53
1483261379.35,48315,10.81,73588.3,-0.07,-38.91,-39.91,0,*5D
1483261380.6,48316,10.81,73584.0,-0.09,-39.53,-40.35,0,*5F
1483261381.81,48317,10.81,73594.8,-0.11,-38.73,-39.41,0,*69
1483261383.06,48318,10.81,73600.8,-0.11,-38.91,-39.79,0,*61
1483261384.3,48319,10.81,73592.8,-0.11,-39.59,-40.53,0,*63
1483261385.58,48320,10.81,73592.8,-0.09,-38.79,-39.59,0,*57
1483261386.82,48321,10.81,73596.0,-0.11,-38.79,-39.53,0,*65
1483261388.05,48322,10.81,73596.3,-0.11,-38.73,-39.59,0,*66
1483261389.29,48323,10.81,73604.0,-0.11,-38.23,-38.91,0,*67
1483261390.49,48324,10.81,73606.3,-0.11,-37.75,-38.55,0,*64
1483261391.73,48325,10.81,73606.5,-0.11,-37.81,-38.61,0,*69
1483261392.95,48326,10.81,73608.5,-0.11,-37.63,-38.35,0,*67
1483261394.15,48327,10.81,73616.5,-0.11,-37.57,-38.17,0,*61
1483261395.37,48328,10.81,73622.3,-0.11,-37.39,-38.05,0,*65
1483261396.65,48329,10.81,73622.5,-0.09,-38.79,-39.79,0,*5C
1483261397.88,48330,10.81,73620.5,-0.11,-39.71,-40.53,0,*62
1483261399.11,48331,10.81,73618.0,-0.11,-39.71,-40.53,0,*63
1483261400.37,48332,10.81,73616.5,-0.11,-39.71,-40.59,0,*6A
1483261401.62,48333,10.81,73608.8,-0.11,-39.15,-40.29,0,*6E
1483261402.86,48334,10.81,73606.3,-0.15,-40.15,-40.85,0,*65
1483261404.13,48335,10.81,73606.8,-0.13,-39.65,-40.59,0,*6A
1483261405.33,48336,10.81,73614.3,-0.15,-39.47,-40.35,0,*65
1483261406.56,48337,10.81,73604.3,-0.15,-39.47,-40.41,0,*67
1483261407.84,48338,10.81,73610.8,-0.17,-39.29,-40.21,0,*64
1483261409.08,48339,10.81,73606.5,-0.21,-38.67,-39.53,0,*60
1483261410.3,48340,10.81,73604.3,-0.21,-39.03,-40.03,0,*66
1483261411.55,48341,10.81,73600.0,-0.21,-39.23,-40.21,0,*65
1483261412.75,48342,10.81,73600.0,-0.21,-39.65,-40.53,0,*61
1483261414.0,48343,10.81,73604.3,-0.21,-37.99,-38.67,0,*65
1483261415.25,48344,10.81,73594.8,-0.21,-38.11,-38.91,0,*64
1483261416.49,48345,10.81,73596.8,-0.21,-38.29,-39.03,0,*64
1483261417.77,48346,10.81,73598.3,-0.17,-37.69,-38.49,0,*66
1483261419.04,48347,10.81,73608.5,-0.17,-37.21,-37.87,0,*66
1483261420.3,48348,10.81,73616.5,-0.17,-37.33,-37.99,0,*65
1483261421.58,48349,10.81,73608.5,-0.17,-37.39,-37.93,0,*64
1483261422.82,48350,10.81,73604.3,-0.15,-37.81,-38.61,0,*6F
1483261424.1,48351,10.81,73598.0,-0.13,-38.29,-39.15,0,*67
1483261425.35,48352,10.81,73604.0,-0.15,-37.69,-38.49,0,*61
1483261426.54,48353,10.81,73604.5,-0.11,-37.57,-38.05,0,*61
1483261427.78,48354,10.81,73612.0,-0.13,-37.87,-38.61,0,*6B
1483261429.03,48355,10.81,73610.5,-0.13,-37.27,-37.93,0,*62
1483261430.28,48356,10.81,73602.5,-0.13,-38.97,-39.97,0,*6F
1483261431.53,48357,10.81,73596.0,-0.13,-38.79,-39.47,0,*63
1483261432.78,48358,10.81,73602.3,-0.15,-38.49,-39.41,0,*6F
1483261434.04,48359,10.81,73602.0,-0.15,-37.63,-38.29,0,*66
1483261435.32,48360,10.81,73604.3,-0.13,-37.69,-38.49,0,*66
1483261436.6,48361,10.81,73612.0,-0.13,-37.51,-38.29,0,*6A
1483261437.88,48362,10.81,73614.3,-0.13,-38.29,-39.03,0,*60
1483261439.13,48363,10.81,73614.8,-0.13,-38.43,-39.15,0,*6A
1483261440.37,48364,10.81,73610.3,-0.15,-37.81,-38.43,0,*68
1483261441.63,48365,10.81,73610.3,-0.13,-37.87,-38.67,0,*6F
1483261442.86,48366,10.81,73606.3,-0.15,-37.87,-38.67,0,*6A
1483261444.12,48367,10.81,73598.5,-0.13,-37.81,-38.61,0,*6D
1483261445.4,48368,10.81,73600.0,-0.13,-37.51,-38.23,0,*69
1483261446.63,48369,10.81,73604.0,-0.11,-37.27,-37.99,0,*65
1483261447.83,48370,10.81,73612.8,-0.11,-37.75,-38.55,0,*65
1483261449.08,48371,10.81,73604.0,-0.11,-37.99,-38.79,0,*68
1483261450.33,48372,10.81,73610.3,-0.11,-38.79,-39.59,0,*69
1483261451.55,48373,10.81,73616.5,-0.11,-38.55,-39.41,0,*6F
1483261452.78,48374,10.81,73616.5,-0.11,-39.09,-39.97,0,*6B
1483261454.0,48375,10.81,73604.0,-0.11,-39.41,-40.35,0,*60
1483261455.29,48376,10.81,73610.8,-0.13,-39.79,-40.79,0,*62
1483261456.49,48377,10.81,73600.3,-0.15,-39.65,-40.47,0,*65
1483261457.78,48378,10.81,73598.5,-0.17,-39.23,-39.71,0,*61
1483261459.02,48379,10.81,73592.0,-0.17,-37.87,-38.55,0,*67
1483261460.25,48380,10.81,73592.8,-0.15,-37.81,-38.61,0,*62
1483261461.45,48381,10.81,73600.0,-0.15,-38.05,-38.85,0,*6A
1483261462.71,48382,10.81,73602.5,-0.17,-37.99,-38.73,0,*68
1483261463.93,48383,10.81,73600.0,-0.15,-37.69,-38.43,0,*67
1483261465.22,48384,10.81,73602.3,-0.13,-37.63,-38.23,0,*6A
1483261466.41,48385,10.81,73604.5,-0.15,-37.45,-38.05,0,*6D
1483261467.66,48386,10.81,73608.5,-0.13,-37.45,-38.11,0,*6D
1483261468.95,48387,10.81,73614.3,-0.13,-37.81,-38.67,0,*65
1483261470.19,48388,10.81,73614.5,-0.13,-38.67,-39.47,0,*6E
1483261471.42,48389,10.81,73618.5,-0.13,-38.05,-38.85,0,*64
1483261472.64,48390,10.81,73618.0,-0.13,-38.61,-39.47,0,*61
1483261473.88,48391,10.81,73612.3,-0.15,-39.65,-40.59,0,*62
1483261475.11,48392,10.81,73610.8,-0.15,-39.47,-40.41,0,*68
1483261476.34,48393,10.81,73608.0,-0.15,-39.15,-40.03,0,*68
1483261477.6,48394,10.81,73602.5,-0.17,-38.17,-38.91,0,*6A
1483261478.86,48395,10.81,73602.3,-0.17,-37.93,-38.55,0,*60
1483261480.11,48396,10.81,73604.3,-0.13,-37.45,-38.11,0,*6C
1483261481.36,48397,10.81,73608.3,-0.13,-37.27,-37.93,0,*6C
1483261482.62,48398,10.81,73608.0,-0.15,-37.81,-38.49,0,*61
1483261483.85,48399,10.81,73614.0,-0.13,-38.05,-38.85,0,*65
1483261485.08,48400,10.81,73610.3,-0.15,-39.15,-40.03,0,*65
1483261486.3,48401,10.81,73612.8,-0.15,-39.03,-40.03,0,*63
1483261487.5,48402,10.81,73606.3,-0.15,-38.97,-39.85,0,*6C
1483261488.7,48403,10.81,73600.0,-0.15,-39.65,-40.65,0,*61
1483261489.96,48404,10.81,73598.3,-0.17,-39.53,-40.47,0,*61
1483261491.18,48405,10.81,73604.3,-0.21,-38.91,-39.85,0,*6A
1483261492.42,48406,10.81,73600.5,-0.21,-37.93,-38.67,0,*69
1483261493.64,48407,10.81,73602.0,-0.21,-38.17,-39.03,0,*68
1483261494.86,48408,10.81,73598.0,-0.21,-37.93,-38.73,0,*62
1483261496.08,48409,10.81,73598.5,-0.21,-38.11,-38.85,0,*6F
1483261497.28,48410,10.81,73600.5,-0.21,-37.87,-38.55,0,*6A
1483261498.54,48411,10.81,73600.0,-0.17,-37.51,-38.17,0,*63
1483261499.82,48412,10.81,73600.3,-0.17,-37.39,-38.11,0,*68
1483261501.08,48413,10.81,73604.8,-0.17,-37.57,-38.29,0,*6A
1483261502.34,48414,10.81,73606.8,-0.17,-37.39,-38.17,0,*68
1483261503.6,48415,10.81,73612.5,-0.13,-37.81,-38.61,0,*6F
1483261504.83,48416,10.81,73614.0,-0.15,-37.81,-38.43,0,*6A
1483261506.06,48417,10.81,73614.3,-0.15,-37.45,-38.23,0,*65
1483261507.34,48418,10.81,73610.5,-0.13,-37.63,-38.23,0,*68
1483261508.57,48419,10.81,73614.3,-0.13,-37.27,-38.05,0,*6D
1483261509.85,48420,10.81,73614.3,-0.13,-37.93,-38.67,0,*6C
1483261511.07,48421,10.81,73612.0,-0.15,-39.29,-40.15,0,*6E
1483261512.3,48422,10.81,73610.5,-0.13,-39.47,-40.47,0,*64
1483261513.56,48423,10.81,73606.5,-0.13,-39.15,-40.03,0,*62
1483261514.79,48424,10.81,73606.3,-0.15,-38.11,-38.85,0,*67
1483261516.04,48425,10.81,73610.5,-0.15,-38.29,-39.15,0,*65
1483261517.32,48426,10.81,73610.8,-0.17,-39.29,-40.09,0,*66
1483261518.52,48427,10.81,73612.3,-0.21,-40.03,-41.11,0,*6C
1483261519.77,48428,10.81,73608.0,-0.17,-38.67,-39.47,0,*67
1483261520.97,48429,10.81,73610.3,-0.21,-37.87,-38.55,0,*60
1483261522.25,48430,10.81,73608.0,-0.17,-38.11,-39.03,0,*6F
1483261523.5,48431,10.81,73608.3,-0.21,-38.49,-39.29,0,*6E
1483261524.71,48432,10.81,73612.5,-0.21,-38.35,-39.23,0,*6C
1483261525.93,48433,10.81,73618.0,-0.21,-37.93,-38.73,0,*6A
1483261527.18,48434,10.81,73612.3,-0.21,-38.91,-39.71,0,*63
1483261528.4,48435,10.81,73610.3,-0.21,-39.53,-40.47,0,*66
1483261529.64,48436,10.81,73612.5,-0.23,-39.53,-40.47,0,*67
1483261530.89,48437,10.81,73604.3,-0.23,-39.91,-40.79,0,*65
1483261532.14,48438,10.81,73606.5,-0.25,-40.15,-40.97,0,*6E
1483261533.37,48439,10.81,73610.8,-0.25,-39.91,-40.79,0,*6D
1483261534.65,48440,10.81,73608.8,-0.27,-39.15,-39.97,0,*63
1483261535.92,48441,10.81,73610.3,-0.27,-39.03,-39.97,0,*65
1483261537.16,48442,10.81,73610.0,-0.29,-39.15,-40.15,0,*6B
1483261538.39,48443,10.81,73610.5,-0.29,-39.15,-40.03,0,*6D
1483261539.66,48444,10.81,73614.5,-0.27,-39.03,-39.97,0,*60
1483261540.89,48445,10.81,73616.3,-0.31,-40.03,-41.11,0,*69
1483261542.12,48446,10.75,73612.8,-0.33,-40.47,-41.35,0,*6E
1483261543.36,48447,10.81,73612.5,-0.33,-39.79,-40.65,0,*68
1483261544.56,48448,10.81,73618.0,-0.33,-38.97,-39.91,0,*63
1483261545.77,48449,10.81,73610.5,-0.33,-39.47,-40.35,0,*6E
1483261546.97,48450,10.81,73608.5,-0.33,-39.47,-40.35,0,*66
1483261548.23,48451,10.81,73608.5,-0.35,-39.29,-40.15,0,*6B
1483261549.45,48452,10.81,73610.8,-0.35,-38.61,-39.47,0,*6C
1483261550.7,48453,10.81,73608.5,-0.35,-38.61,-39.29,0,*65
1483261551.95,48454,10.81,73606.5,-0.35,-38.97,-39.79,0,*6E
1483261553.2,48455,10.81,73608.3,-0.35,-38.97,-39.79,0,*6F
1483261554.47,48456,10.75,73610.3,-0.35,-38.11,-38.91,0,*65
1483261555.75,48457,10.81,73612.3,-0.35,-37.99,-38.79,0,*6D
1483261557.0,48458,10.81,73604.3,-0.35,-39.29,-40.15,0,*62
1483261558.26,48459,10.81,73602.5,-0.35,-39.09,-39.97,0,*65
1483261559.5,48460,10.81,73602.3,-0.35,-38.35,-39.29,0,*64
1483261560.7,48461,10.81,73594.5,-0.37,-38.17,-38.97,0,*63
1483261561.98,48462,10.75,73590.5,-0.35,-37.63,-38.23,0,*61
1483261563.21,48463,10.81,73588.0,-0.33,-37.45,-38.23,0,*62
1483261564.44,48464,10.81,73588.5,-0.33,-37.57,-38.29,0,*6C
1483261565.72,48465,10.81,73596.8,-0.31,-37.39,-38.11,0,*6C
1483261566.94,48466,10.81,73608.5,-0.29,-37.45,-38.11,0,*6D
1483261568.2,48467,10.81,73608.8,-0.31,-37.39,-37.87,0,*6E
1483261569.42,48468,10.81,73602.3,-0.29,-37.45,-38.11,0,*63
1483261570.65,48469,10.81,73592.8,-0.29,-37.45,-38.23,0,*63
1483261571.91,48470,10.81,73606.5,-0.27,-37.09,-37.87,0,*6C
1483261573.16,48471,10.81,73616.3,-0.27,-37.45,-38.23,0,*64
1483261574.39,48472,10.81,73610.8,-0.25,-37.57,-38.23,0,*66
1483261575.59,48473,10.81,73606.8,-0.25,-38.35,-39.09,0,*65
1483261576.82,48474,10.81,73608.8,-0.25,-37.81,-38.73,0,*6E
1483261578.1,48475,10.81,73610.5,-0.27,-37.51,-38.23,0,*65
1483261579.36,48476,10.81,73610.5,-0.25,-37.21,-37.81,0,*64
1483261580.61,48477,10.81,73610.3,-0.23,-37.27,-37.93,0,*66
1483261581.89,48478,10.75,73608.5,-0.23,-37.21,-37.81,0,*6C
1483261583.14,48479,10.81,73612.5,-0.23,-37.21,-38.05,0,*6E
1483261584.36,48480,10.81,73608.8,-0.23,-37.27,-38.05,0,*6E
1483261585.61,48481,10.81,73604.5,-0.23,-37.93,-38.61,0,*62
1483261586.83,48482,10.81,73610.5,-0.23,-37.75,-38.43,0,*69
1483261588.03,48483,10.81,73610.5,-0.21,-38.17,-39.09,0,*6E
1483261589.28,48484,10.81,73602.8,-0.21,-37.93,-38.67,0,*63
1483261590.51,48485,10.75,73590.8,-0.21,-37.87,-38.49,0,*6B
1483261591.71,48486,10.81,73606.8,-0.21,-37.15,-37.87,0,*6E
1483261593.0,48487,10.81,73614.0,-0.17,-37.21,-37.99,0,*62
1483261594.26,48488,10.81,73610.3,-0.17,-37.57,-38.29,0,*68
1483261595.48,48489,10.81,73604.0,-0.21,-38.35,-39.23,0,*6C
1483261596.7,48490,10.81,73602.8,-0.21,-37.99,-38.85,0,*60
1483261597.95,48491,10.81,73602.8,-0.17,-37.93,-38.73,0,*67
1483261599.19,48492,10.81,73608.8,-0.17,-37.57,-38.35,0,*6E
1483261600.44,48493,10.81,73612.5,-0.17,-38.35,-39.29,0,*68
1483261601.7,48494,10.81,73614.8,-0.17,-39.71,-40.53,0,*6D
1483261602.94,48495,10.81,73610.0,-0.21,-39.91,-40.85,0,*6C
1483261604.19,48496,10.81,73604.8,-0.23,-39.59,-40.47,0,*67
1483261605.42,48497,10.81,73604.0,-0.25,-38.43,-39.29,0,*6C
1483261606.62,48498,10.81,73606.5,-0.25,-38.17,-38.97,0,*66
1483261607.87,48499,10.81,73608.3,-0.23,-37.93,-38.61,0,*6B
1483261609.09,48500,10.81,73608.3,-0.23,-37.57,-38.43,0,*62
1483261610.34,48501,10.81,73606.8,-0.23,-38.35,-39.15,0,*6A
1483261611.59,48502,10.81,73590.0,-0.23,-37.99,-38.55,0,*65
1483261612.84,48503,10.81,73606.0,-0.23,-37.81,-38.61,0,*6A
1483261614.09,48504,10.81,73612.3,-0.23,-38.35,-39.15,0,*6F
1483261615.35,48505,10.75,73608.5,-0.23,-39.59,-40.53,0,*69
1483261616.58,48506,10.81,73602.0,-0.25,-39.35,-40.29,0,*6B
1483261617.82,48507,10.81,73602.0,-0.23,-38.55,-39.29,0,*65
1483261619.08,48508,10.81,73598.0,-0.25,-38.79,-39.59,0,*65
1483261620.35,48509,10.81,73606.0,-0.27,-38.29,-39.23,0,*6E
1483261621.6,48510,10.75,73606.5,-0.27,-38.61,-39.41,0,*6E
1483261622.83,48511,10.81,73606.0,-0.27,-39.47,-40.53,0,*67
1483261624.06,48512,10.81,73606.3,-0.27,-39.65,-40.53,0,*64
1483261625.31,48513,10.81,73608.5,-0.27,-38.85,-39.79,0,*6C
1483261626.59,48514,10.75,73600.5,-0.27,-39.23,-40.21,0,*65
1483261627.85,48515,10.81,73602.0,-0.27,-39.59,-40.65,0,*69
1483261629.1,48516,10.81,73596.3,-0.29,-39.97,-40.85,0,*68
1483261630.36,48517,10.75,73596.5,-0.31,-39.85,-40.85,0,*63
1483261631.59,48518,10.75,73596.8,-0.33,-39.29,-40.15,0,*61
1483261632.84,48519,10.81,73598.5,-0.31,-39.03,-40.03,0,*6D
1483261634.06,48520,10.81,73604.8,-0.35,-38.55,-39.47,0,*6F
1483261635.29,48521,10.75,73604.3,-0.33,-38.17,-38.91,0,*64
1483261636.49,48522,10.81,73608.8,-0.33,-38.61,-39.35,0,*69
1483261637.74,48523,10.81,73602.5,-0.31,-37.69,-38.35,0,*6C
1483261638.98,48524,10.75,73606.8,-0.33,-37.27,-37.99,0,*6A
1483261640.2,48525,10.81,73610.8,-0.31,-37.75,-38.55,0,*61
1483261641.48,48526,10.81,73618.5,-0.31,-37.69,-38.49,0,*62
1483261642.71,48527,10.81,73612.3,-0.31,-38.35,-39.09,0,*60
1483261643.93,48528,10.81,73610.0,-0.29,-38.49,-39.35,0,*62
1483261645.16,48529,10.75,73604.3,-0.29,-38.11,-38.97,0,*67
1483261646.39,48530,10.81,73602.8,-0.29,-37.87,-38.67,0,*60
1483261647.64,48531,10.81,73602.0,-0.31,-37.69,-38.35,0,*6F
1483261648.92,48532,10.81,73610.0,-0.31,-37.39,-38.11,0,*6F
1483261650.2,48533,10.81,73604.8,-0.27,-37.51,-38.29,0,*6C
1483261651.43,48534,10.81,73606.5,-0.29,-37.45,-38.29,0,*60
1483261652.68,48535,10.75,73600.3,-0.27,-38.05,-38.79,0,*61
1483261653.9,48536,10.81,73612.3,-0.27,-37.15,-37.87,0,*62
1483261655.15,48537,10.81,73608.0,-0.27,-37.45,-38.23,0,*67
1483261656.39,48538,10.81,73604.3,-0.25,-37.09,-37.75,0,*6E
1483261657.59,48539,10.81,73608.5,-0.25,-37.03,-37.75,0,*65
1483261658.84,48540,10.81,73602.3,-0.23,-37.27,-37.99,0,*69
1483261660.12,48541,10.81,73602.5,-0.23,-37.09,-37.93,0,*6E
1483261661.34,48542,10.81,73606.3,-0.23,-37.27,-38.05,0,*61
1483261662.59,48543,10.81,73608.0,-0.23,-37.81,-38.61,0,*6E
1483261663.82,48544,10.81,73608.3,-0.23,-37.75,-38.43,0,*62
1483261665.07,48545,10.81,73610.8,-0.23,-37.63,-38.43,0,*64
1483261666.32,48546,10.81,73612.3,-0.17,-36.85,-37.69,0,*6E
1483261667.54,48547,10.81,73610.0,-0.21,-36.79,-37.57,0,*64
1483261668.8,48548,10.81,73610.0,-0.17,-37.15,-37.93,0,*6D
1483261670.06,48549,10.75,73606.8,-0.17,-37.33,-37.99,0,*62
1483261671.29,48550,10.81,73624.5,-0.17,-36.85,-37.57,0,*64
1483261672.55,48551,10.81,73632.0,-0.17,-37.69,-38.35,0,*6D
1483261673.84,48552,10.81,73626.3,-0.17,-37.51,-38.29,0,*68
1483261675.1,48553,10.81,73622.5,-0.15,-37.63,-38.49,0,*6C
1483261676.34,48554,10.81,73622.5,-0.15,-38.23,-39.23,0,*6D
1483261677.54,48555,10.81,73620.5,-0.15,-38.61,-39.47,0,*68
1483261678.79,48556,10.81,73618.0,-0.17,-38.35,-39.29,0,*60
1483261680.04,48557,10.81,73608.8,-0.17,-38.17,-38.91,0,*63
1483261681.26,48558,10.81,73610.5,-0.21,-38.17,-39.03,0,*63
1483261682.55,48559,10.81,73606.3,-0.17,-37.51,-38.29,0,*63
1483261683.78,48560,10.81,73602.8,-0.17,-37.03,-37.75,0,*68
1483261685.01,48561,10.81,73604.5,-0.15,-37.15,-37.81,0,*67
1483261686.26,48562,10.81,73602.8,-0.15,-36.91,-37.69,0,*6F
1483261687.55,48563,10.81,73606.8,-0.13,-37.09,-37.81,0,*6E
1483261688.8,48564,10.81,73612.5,-0.13,-36.97,-37.69,0,*69
1483261690.05,48565,10.81,73614.0,-0.13,-37.27,-37.93,0,*67
1483261691.27,48566,10.81,73612.3,-0.11,-38.17,-38.91,0,*67
1483261692.53,48567,10.81,73612.0,-0.13,-38.05,-38.67,0,*6E
1483261693.75,48568,10.81,73612.3,-0.11,-38.73,-39.71,0,*64
1483261695.01,48569,10.81,73612.8,-0.13,-39.47,-40.41,0,*6C
1483261696.25,48570,10.81,73614.5,-0.15,-39.79,-41.03,0,*68